カタログに戻る

COSMOS 374 DEB

運用中LEO
NORAD 4711·DEBRIS·🇷🇺 Russia

打ち上げ Oct 23, 1970 から Baikonur Cosmodrome

Loading…

次のパス (今後24時間)

TLE

最新Source: Space-Track

元期: Sep 14, 2026, 05:11 UTC

1 04711U 70089S   26257.21610135  .00000805  00000-0  22770-3 0  9992
2 04711  63.1161 337.6039 0815295  83.6788 285.6356 13.38856268666692

AllMySatでCOSMOS 374 DEBをリアルタイム追跡

Download on the App Store